Simultaneous Nadir Overpasses (SNOs) Predictions

Prediction of SNOs between NOAA-21 and PACE Satellite Orbit:

Table of predicted SNOs for the next 14.0 days since TLE Epoch: 5/31/2024
Index Date (NOAA-21) Time (NOAA-21) Lat,Lon (NOAA-21) SZA (NOAA-21 ) Date (PACE) Time (PACE) Lat,Lon (PACE) SZA (PACE ) Distance(km) Time Diff (sec)
1 06/02/2024 21:48:43 -79.71, -3.59 120.56 06/02/2024 21:48:40 -79.71, -3.50 120.57 1.76 3
2 06/05/2024 01:24:33 79.86, 121.10 59.48 06/05/2024 01:25:43 79.85, 121.18 59.43 1.77 70
3 06/05/2024 02:15:11 -79.66, -69.76 120.89 06/05/2024 02:14:47 -79.65, -69.64 120.89 2.46 24
4 06/07/2024 05:51:00 79.78, 55.19 59.14 06/07/2024 05:51:49 79.78, 55.18 59.11 0.21 49
5 06/07/2024 06:41:38 -79.58,-135.68 121.23 06/07/2024 06:40:53 -79.58,-135.65 121.22 0.76 45
6 06/09/2024 10:17:29 79.77, -11.33 58.94 06/09/2024 10:17:56 79.77, -11.23 58.91 2.11 27
7 06/09/2024 11:08:07 -79.57, 157.81 121.43 06/09/2024 11:07:00 -79.56, 157.94 121.42 2.94 67
8 06/11/2024 14:43:57 79.74, -77.60 58.73 06/11/2024 14:44:02 79.73, -77.51 58.72 1.83 5



Historial Predications of SNOs between NOAA-21 and PACE
